Tracking 19562 objects as of 22-Mar-2019
HD Live streaming from Space Station
objects crossing your sky now

SCISAT 1

Track SCISAT 1 now!
10-day predictions
SCISAT 1 is classified as:


NORAD ID: 27858
Int'l Code: 2003-036A
Perigee: 638.9 km
Apogee: 651.4 km
Inclination: 73.9 °
Period: 97.5 minutes
Semi major axis: 7016 km
RCS: 0.7229 m2 (medium)
Launch date: August 13, 2003
Source: Canada (CA)
Launch site: Pegasus launched from Western Range Air Space (WRAS)
aabbcc
Your satellite tracking list
Your tracking list is empty




NASA's NSSDC Master Catalog

Two Line Element Set (TLE):
1 27858U 03036A   19080.94010794 +.00000059 +00000-0 +13327-4 0  9998
2 27858 073.9354 359.9536 0008908 306.1459 053.8890 14.77238165840689
Source of the keplerian elements: AFSPC